Location: Bazinghen
(50.8246°N, 1.6616°E)
Time: 13:21:35
(UTC+00:00)

STARLINK-1239 - Visible Passes

Search period start: 06 August 2020 00:00
Search period end: 16 August 2020 00:00
Orbit: 549 x 550 km, 53.0° (Epoch: 05 August)

Date Brightness Start Highest point End Pass type
(mag) Time Alt. Az. Time Alt. Az. Time Alt. Az.
06 Aug 3.7 00:04:18 10° WNW 00:08:28 76° NNE 00:10:29 29° E visible
06 Aug 5.0 01:44:00 10° WNW 01:45:55 24° W 01:45:55 24° W visible
06 Aug 3.5 20:39:22 10° WSW 20:43:30 72° SSE 20:47:38 10° ENE visible
06 Aug 4.0 22:19:03 10° W 22:23:11 64° N 22:27:19 10° ENE visible
06 Aug 3.5 23:58:49 10° WNW 00:02:59 84° NNE 00:03:15 77° E visible
07 Aug 6.0 01:38:35 10° W 01:38:48 11° W 01:38:48 11° W visible
07 Aug 3.6 20:33:45 10° WSW 20:37:54 83° SSE 20:42:04 10° ENE visible
07 Aug 4.0 22:13:31 10° W 22:17:39 63° N 22:21:14 13° E visible
07 Aug 3.7 23:53:14 10° WNW 23:56:49 64° W 23:56:49 64° W visible
08 Aug 3.6 20:28:06 10° WSW 20:32:16 87° NNW 20:36:26 10° ENE visible
08 Aug 4.0 22:07:55 10° W 22:12:03 63° N 22:15:01 18° E visible
08 Aug 4.2 23:47:35 10° WNW 23:50:36 46° W 23:50:36 46° W visible
09 Aug 3.8 20:22:24 10° WSW 20:26:33 78° NNW 20:30:43 10° ENE visible
09 Aug 3.9 22:02:13 10° WNW 22:06:22 66° N 22:08:51 23° E visible
09 Aug 4.7 23:41:52 10° WNW 23:44:27 35° W 23:44:27 35° W visible
10 Aug 3.9 20:16:38 10° W 20:20:47 72° NNW 20:24:56 10° ENE visible
10 Aug 3.8 21:56:27 10° WNW 22:00:35 69° N 22:02:43 27° E visible
10 Aug 5.0 23:36:06 10° WNW 23:38:18 29° W 23:38:18 29° W visible
11 Aug 4.0 20:10:48 10° W 20:14:57 67° N 20:19:05 10° ENE visible
11 Aug 3.7 21:50:35 10° WNW 21:54:44 75° NNE 21:56:34 32° E visible
11 Aug 5.3 23:30:15 10° WNW 23:32:09 24° W 23:32:09 24° W visible
12 Aug 4.0 20:04:53 10° W 20:09:01 64° N 20:13:09 10° ENE visible
12 Aug 3.6 21:44:38 10° WNW 21:48:48 82° NNE 21:50:23 37° E visible
12 Aug 5.5 23:24:21 10° WNW 23:25:58 21° W 23:25:58 21° W visible
13 Aug 4.1 19:58:54 10° W 20:03:02 63° N 20:07:10 10° E visible
13 Aug 3.5 21:38:36 10° WNW 21:42:46 89° SSW 21:44:10 41° ESE visible
13 Aug 5.7 23:18:25 10° W 23:19:45 18° W 23:19:45 18° W visible
14 Aug 4.0 19:52:50 10° W 19:56:58 63° N 20:01:06 10° E visible
14 Aug 3.5 21:32:30 10° WNW 21:36:40 78° SSW 21:37:55 43° SE visible
14 Aug 5.9 23:12:27 10° W 23:13:30 15° W 23:13:30 15° W visible
15 Aug 4.0 19:46:42 10° WNW 19:50:49 65° N 19:54:57 10° E visible
15 Aug 3.6 21:26:19 10° WNW 21:30:27 67° SSW 21:31:37 43° SE visible
15 Aug 6.1 23:06:31 10° W 23:07:12 13° W 23:07:12 13° W visible
